TimeCDT,TemperatureF,Dew PointF,Humidity,Sea Level PressureIn,VisibilityMPH,Wind Direction,Wind SpeedMPH,Gust SpeedMPH,PrecipitationIn,Events,Conditions,WindDirDegrees,DateUTC
12:43 AM,59.0,53.6,82,29.66,10.0,NE,12.7,20.7,N/A,,Overcast,40,2013-05-30 05:43:00
12:54 AM,57.9,53.1,84,29.65,10.0,NNE,11.5,-,N/A,,Overcast,30,2013-05-30 05:54:00
1:54 AM,57.9,52.0,81,29.65,10.0,NNE,12.7,-,N/A,,Overcast,30,2013-05-30 06:54:00
2:54 AM,57.0,53.1,87,29.61,10.0,NNE,13.8,-,N/A,,Overcast,30,2013-05-30 07:54:00
3:30 AM,55.4,51.8,88,29.60,10.0,NNE,17.3,24.2,N/A,,Overcast,30,2013-05-30 08:30:00
3:54 AM,55.9,52.0,87,29.59,10.0,NNE,19.6,25.3,N/A,,Overcast,20,2013-05-30 08:54:00
4:51 AM,55.4,51.8,88,29.58,10.0,NNE,15.0,26.5,N/A,,Overcast,30,2013-05-30 09:51:00
4:54 AM,55.0,51.1,86,29.58,10.0,NNE,17.3,-,N/A,,Overcast,20,2013-05-30 09:54:00
5:08 AM,55.4,51.8,88,29.57,10.0,North,16.1,-,N/A,,Overcast,10,2013-05-30 10:08:00
5:54 AM,55.0,51.1,86,29.56,10.0,North,12.7,24.2,N/A,,Overcast,10,2013-05-30 10:54:00
6:54 AM,53.1,51.1,93,29.58,3.0,North,11.5,-,0.06,Rain,Rain,360,2013-05-30 11:54:00
7:18 AM,53.6,51.8,94,29.58,2.0,North,11.5,-,0.09,Rain,Heavy Rain,360,2013-05-30 12:18:00
7:33 AM,53.6,51.8,94,29.57,1.8,North,11.5,-,0.15,Rain,Heavy Rain,360,2013-05-30 12:33:00
7:47 AM,53.6,51.8,94,29.56,2.0,North,12.7,-,0.21,Rain,Heavy Rain,360,2013-05-30 12:47:00
7:54 AM,53.1,52.0,96,29.56,2.5,North,12.7,-,0.23,Rain,Heavy Rain,360,2013-05-30 12:54:00
8:07 AM,53.6,51.8,94,29.55,3.0,North,12.7,-,0.03,Rain,Rain,360,2013-05-30 13:07:00
8:21 AM,53.6,53.6,100,29.54,2.0,North,15.0,-,0.07,Rain,Rain,360,2013-05-30 13:21:00
8:33 AM,53.6,53.6,100,29.54,1.8,North,16.1,-,0.13,Rain,Heavy Rain,10,2013-05-30 13:33:00
8:42 AM,53.6,53.6,100,29.53,2.5,North,15.0,-,0.17,Rain,Heavy Rain,10,2013-05-30 13:42:00
8:54 AM,54.0,53.1,97,29.53,3.0,North,17.3,-,0.20,Rain,Rain,10,2013-05-30 13:54:00
9:54 AM,55.0,53.1,93,29.51,10.0,North,16.1,27.6,0.09,Rain,Light Rain,10,2013-05-30 14:54:00
10:54 AM,55.0,53.1,93,29.49,10.0,North,18.4,27.6,0.02,Rain,Light Rain,10,2013-05-30 15:54:00
11:01 AM,55.4,53.6,94,29.49,10.0,North,18.4,25.3,0.00,Rain,Light Rain,10,2013-05-30 16:01:00
11:12 AM,55.4,53.6,94,29.48,2.5,NNE,15.0,25.3,0.02,Rain,Heavy Rain,20,2013-05-30 16:12:00
11:54 AM,55.9,54.0,93,29.46,2.5,NNE,23.0,29.9,0.09,Rain,Rain,20,2013-05-30 16:54:00
12:01 PM,55.4,53.6,94,29.46,3.0,North,21.9,31.1,0.01,Rain,Light Rain,10,2013-05-30 17:01:00
12:54 PM,55.9,54.0,93,29.45,3.0,NNE,21.9,27.6,0.03,Rain,Light Rain,20,2013-05-30 17:54:00
1:01 PM,55.4,53.6,94,29.45,9.0,NNE,23.0,27.6,0.00,Rain,Light Rain,20,2013-05-30 18:01:00
1:13 PM,55.4,53.6,94,29.45,1.8,NNE,19.6,27.6,0.04,Rain,Heavy Rain,20,2013-05-30 18:13:00
1:54 PM,55.9,54.0,93,29.46,1.8,NNE,21.9,-,0.16,Rain,Light Rain,30,2013-05-30 18:54:00
2:00 PM,55.4,53.6,94,29.45,3.0,NNE,25.3,31.1,0.01,Rain,Light Rain,20,2013-05-30 19:00:00
2:09 PM,55.4,53.6,94,29.44,1.8,NNE,21.9,29.9,0.03,Rain,Rain,20,2013-05-30 19:09:00
2:46 PM,55.4,53.6,94,29.43,3.0,NNE,21.9,31.1,0.08,Rain,Light Rain,20,2013-05-30 19:46:00
2:54 PM,55.0,54.0,96,29.44,2.5,NNE,19.6,31.1,0.08,Rain,Light Rain,20,2013-05-30 19:54:00
3:09 PM,55.4,53.6,94,29.43,3.0,NNE,19.6,28.8,0.01,Rain,Light Rain,20,2013-05-30 20:09:00
3:19 PM,55.4,53.6,94,29.43,2.0,NNE,21.9,28.8,0.02,Rain,Light Rain,20,2013-05-30 20:19:00
3:54 PM,55.9,54.0,93,29.43,2.0,NNE,19.6,28.8,0.04,Rain,Light Rain,20,2013-05-30 20:54:00
4:04 PM,55.4,55.4,100,29.42,1.8,NNE,18.4,27.6,0.02,Rain,Light Rain,20,2013-05-30 21:04:00
4:19 PM,55.4,55.4,100,29.42,2.0,NNE,19.6,29.9,0.03,Rain,Light Rain,20,2013-05-30 21:19:00
4:54 PM,57.0,55.0,93,29.42,3.0,NNE,19.6,31.1,0.06,Rain,Light Rain,30,2013-05-30 21:54:00
5:54 PM,57.0,55.0,93,29.42,10.0,NNE,21.9,29.9,0.01,,Overcast,30,2013-05-30 22:54:00
6:54 PM,57.9,55.0,90,29.42,10.0,NNE,20.7,28.8,N/A,,Overcast,30,2013-05-30 23:54:00
7:54 PM,57.9,55.0,90,29.43,10.0,NNE,18.4,28.8,N/A,,Overcast,30,2013-05-31 00:54:00
8:54 PM,57.9,55.0,90,29.43,10.0,NNE,19.6,28.8,N/A,,Overcast,30,2013-05-31 01:54:00
9:51 PM,57.2,55.4,94,29.44,10.0,NNE,18.4,-,N/A,,Overcast,30,2013-05-31 02:51:00
9:54 PM,57.9,55.0,90,29.44,10.0,NNE,18.4,-,N/A,,Overcast,30,2013-05-31 02:54:00
10:54 PM,57.9,55.9,93,29.45,10.0,NNE,15.0,-,0.01,Rain,Light Rain,30,2013-05-31 03:54:00
11:54 PM,57.0,55.0,93,29.45,10.0,NNE,17.3,24.2,0.01,,Overcast,30,2013-05-31 04:54:00